{"data":{"norad_id":41945,"epoch":"2026-09-19T20:11:17.810304Z","epoch_age_seconds":71352,"freshness":"FRESH","line1":"1 41945U 17007B   26262.84117836 -.00000273  00000+0  00000+0 0  9995","line2":"2 41945   0.0160 236.8181 0000585 227.0367 154.5532  1.00272981 35177","mean_motion":1.00272981,"eccentricity":5.85e-5,"inclination_deg":0.016,"raan_deg":236.8181,"arg_perigee_deg":227.0367,"mean_anomaly_deg":154.5532,"bstar":0,"rev_number":3517,"period_min":1436.0797750692,"perigee_km":35783.793065101,"apogee_km":35788.726299513,"semimajor_km":42164.396682307,"source":"CELESTRAK","updated_at":"2026-09-20T09:00:35.523095Z"}}